Weather History for KSSF - August, 2014

Change the Weather History Date:

Tuesday, August 12, 2014

  Actual Average Record
Temperature  
Mean Temperature 87 °F -  
Max Temperature 102 °F 94 °F 105 °F (2011)
Min Temperature 75 °F 72 °F 66 °F (2004)
Cooling Degree Days 22    
Growing Degree Days 37 (Base 50)    
Moisture  
Dew Point 70 °F    
Average Humidity 64    
Maximum Humidity 90    
Minimum Humidity 34    
Precipitation  
Precipitation 0.25 in - - ()
Sea Level Pressure  
Sea Level Pressure 29.98 in    
Wind  
Wind Speed 5 mph (WNW)    
Max Wind Speed 23 mph    
Max Gust Speed 31 mph    
Visibility 10 miles    
Events Rain , Thunderstorm    
Averages and records for this station are not official NWS values.
T = Trace of Precipitation, MM = Missing Value Source: NWS Daily Summary

Daily Weather History Graph

Daily Weather History Graph

Search for Another Location

Airport or City:

Trip Planner

Search our weather history database for the weather conditions in past years. The results will help you decide how hot, cold, wet, or windy it might be!

Date:

Astronomy

Aug. 12, 2014 Rise Set
Actual Time 7:00 AM CDT 8:16 PM CDT
Civil Twilight 6:35 AM CDT 8:41 PM CDT
Nautical Twilight 6:05 AM CDT 9:11 PM CDT
Astronomical Twilight 5:34 AM CDT 9:42 PM CDT
Moon 9:42 PM CDT (8/12) 9:05 AM CDT (8/12)
Length of Visible Light 14h 06m
Length of Day
13h 16m
Waning Gibbous, 94% of the Moon is Illuminated
Aug 12
Waning Gibbous
Aug 17
Last Quarter
Aug 25
New
Sep 2
First Quarter
Sep 8
Full

Hourly Weather History & Observations

Time (CDT) Temp. Heat Index Dew Point Humidity Pressure Visibility Wind Dir Wind Speed Gust Speed Precip Events Conditions
12:53 AM 82.0 °F 84.5 °F 66.9 °F 60% 30.00 in 10.0 mi East 4.6 mph - N/A   Clear
1:53 AM 80.1 °F 82.1 °F 66.0 °F 62% 30.00 in 10.0 mi SE 3.5 mph - N/A   Clear
2:53 AM 80.1 °F 82.1 °F 66.0 °F 62% 29.99 in 10.0 mi North 3.5 mph - N/A   Clear
3:53 AM 80.1 °F 82.3 °F 66.9 °F 64% 29.99 in 10.0 mi Calm Calm - N/A   Clear
4:53 AM 80.1 °F 82.3 °F 66.9 °F 64% 29.99 in 10.0 mi NNE 3.5 mph - N/A   Clear
5:53 AM 80.1 °F 82.3 °F 66.9 °F 64% 29.99 in 10.0 mi Calm Calm - N/A   Scattered Clouds
6:53 AM 80.1 °F 82.7 °F 68.0 °F 67% 30.00 in 10.0 mi Calm Calm - N/A   Clear
7:53 AM 80.1 °F 82.9 °F 69.1 °F 69% 30.01 in 10.0 mi Calm Calm - N/A   Clear
8:53 AM 82.9 °F 86.5 °F 69.1 °F 63% 30.03 in 10.0 mi NE 3.5 mph - N/A   Clear
9:53 AM 87.1 °F 92.0 °F 70.0 °F 57% 30.03 in 10.0 mi Variable 3.5 mph - N/A   Clear
10:53 AM 90.0 °F 93.6 °F 68.0 °F 48% 30.02 in 10.0 mi West 3.5 mph - N/A   Clear
12:53 PM 96.1 °F 99.3 °F 66.0 °F 37% 29.99 in 10.0 mi Variable 3.5 mph - N/A   Clear
1:53 PM 99.0 °F 102.9 °F 66.0 °F 34% 29.96 in 10.0 mi East 5.8 mph - N/A   Scattered Clouds
2:53 PM 93.9 °F 98.6 °F 68.0 °F 43% 29.94 in 10.0 mi East 13.8 mph - 0.00 in Rain Light Rain
3:45 PM 91.9 °F 95.4 °F 66.9 °F 44% 29.97 in 10.0 mi WSW 15.0 mph - 0.00 in Thunderstorm Partly Cloudy
3:53 PM 91.9 °F 97.4 °F 70.0 °F 48% 29.93 in 10.0 mi West 23.0 mph 28.8 mph 0.00 in Thunderstorm Scattered Clouds
4:51 PM 80.6 °F 85.4 °F 73.4 °F 79% 29.97 in 5.0 mi WSW 8.1 mph - 0.07 in Rain , Thunderstorm Light Rain
4:53 PM 80.1 °F 84.5 °F 73.9 °F 81% 29.94 in 5.0 mi WSW 8.1 mph - 0.07 in Rain , Thunderstorm Light Rain
5:49 PM 87.8 °F 95.6 °F 73.4 °F 62% 29.95 in 10.0 mi SW 5.8 mph - 0.00 in   Partly Cloudy
5:53 PM 88.0 °F 94.7 °F 72.0 °F 59% 29.91 in 10.0 mi WSW 5.8 mph - 0.00 in   Partly Cloudy
6:53 PM 89.1 °F 95.0 °F 71.1 °F 55% 29.91 in 10.0 mi West 4.6 mph - N/A   Clear
7:53 PM 87.1 °F 93.6 °F 72.0 °F 61% 29.93 in 10.0 mi SSW 4.6 mph - N/A   Scattered Clouds
8:38 PM 86.0 °F 93.0 °F 73.0 °F 65% 29.98 in 10.0 mi NW 6.9 mph - N/A Thunderstorm Mostly Cloudy
8:50 PM 80.6 °F 84.6 °F 71.6 °F 74% 30.01 in 10.0 mi North 19.6 mph 31.1 mph N/A Thunderstorm Thunderstorm
8:53 PM 80.1 °F 83.8 °F 72.0 °F 76% 29.98 in 10.0 mi North 16.1 mph 31.1 mph N/A Thunderstorm Thunderstorm
9:48 PM 75.2 °F - 71.6 °F 89% 29.99 in 10.0 mi NNW 3.5 mph - 0.18 in   Mostly Cloudy
9:53 PM 77.0 °F - 72.0 °F 84% 29.96 in 10.0 mi Calm Calm - 0.18 in   Mostly Cloudy
10:53 PM 77.0 °F - 73.9 °F 90% 29.96 in 10.0 mi Calm Calm - N/A   Clear
11:53 PM 77.0 °F - 73.0 °F 88% 29.98 in 10.0 mi Calm Calm - N/A   Partly Cloudy